This is the latest recevied weather packets stored in our database for station/object HK3BJ-11. If no packets are shown the sender has not sent any weather packets the latest 10 day(s).
| Time | Temp. | Humidity | Pressure | Rain* | Wind** | Luminosity | Snow |
|---|---|---|---|---|---|---|---|
| 1787884833 | 11.67° C | 84% | 1020 hPa | 0 mm | - | - | - |
| 1787883862 | 11.67° C | 78% | 1019 hPa | 0 mm | - | - | - |
| 1787882901 | 12.22° C | 79% | 1019 hPa | 0 mm | - | - | - |
| 1787881956 | 12.22° C | 82% | 1019 hPa | 0 mm | - | - | - |
| 1787881000 | 13.33° C | 79% | 1019 hPa | 0 mm | - | - | - |
| 1787880047 | 13.33° C | 71% | 1018 hPa | 0 mm | - | - | - |
| 1787879102 | 12.78° C | 73% | 1018 hPa | 0 mm | - | - | - |
| 1787878161 | 12.78° C | 78% | 1018 hPa | 0 mm | - | - | - |
| 1787877197 | 13.33° C | 75% | 1017 hPa | 0 mm | - | - | - |
| 1787876241 | 14.44° C | 66% | 1016 hPa | 0 mm | - | - | - |
| 1787875298 | 13.89° C | 66% | 1016 hPa | 0 mm | - | - | - |
| 1787874351 | 13.89° C | 70% | 1016 hPa | 0 mm | - | - | - |
| 1787873399 | 16.11° C | 61% | 1014 hPa | 0 mm | - | - | - |
| 1787872446 | 16.11° C | 63% | 1014 hPa | 0 mm | - | - | - |
| 1787871479 | 15.56° C | 65% | 1014 hPa | 0 mm | - | - | - |
| 1787870512 | 18.89° C | 58% | 1014 hPa | 0 mm | - | - | - |
| 1787869537 | 17.78° C | 58% | 1012 hPa | 0 mm | - | - | - |
| 1787868561 | 16.67° C | 58% | 1012 hPa | 0 mm | - | - | - |
| 1787867535 | 18.89° C | 58% | 1012 hPa | 0 mm | - | - | - |
| 1787866587 | 17.78° C | 58% | 1012 hPa | 0 mm | - | - | - |
| 1787865639 | 16.67° C | 58% | 1011 hPa | 0 mm | - | - | - |
| 1787864689 | 21.11° C | 57% | 1011 hPa | 0 mm | - | - | - |
| 1787863730 | 20° C | 57% | 1011 hPa | 0 mm | - | - | - |
| 1787862785 | 18.89° C | 57% | 1011 hPa | 0 mm | - | - | - |
| 1787860889 | 17.78° C | 57% | 1011 hPa | 0 mm | - | - | - |
* Rain latest hour (hover to see other rain measurements)
** Current wind speed in m/s (hover to see current wind gust speed)